| time (UTC) | temp C | wind direction | speed KPH | gust KPH | rain 1hr cm | rain 24hr cm | rain mn cm | humidity % | barometer mb |
| 20260506073026 | 18 | 326 | 4.8 | 12.9 | 13.97 | 0.00 | 0.00 | 65 | 43.6 |
| 20260506072635 | 18 | 330 | 4.8 | 11.3 | 13.97 | 0.00 | 0.00 | 65 | 43.4 |
| 20260506072127 | 18 | 321 | 6.4 | 11.3 | 13.97 | 0.00 | 0.00 | 65 | 43.2 |
| 20260506071607 | 18 | 330 | 6.4 | 12.9 | 13.97 | 0.00 | 0.00 | 65 | 43.3 |
| 20260506071256 | 18 | 320 | 4.8 | 11.3 | 14.00 | 0.00 | 0.00 | 65 | 43.6 |
| 20260506070727 | 18 | 316 | 6.4 | 11.3 | 14.00 | 0.00 | 0.00 | 65 | 43.3 |
| 20260506062041 | 18 | 298 | 11.3 | 17.7 | 14.02 | 0.00 | 0.00 | 66 | 42.4 |
| 20260506061524 | 18 | 306 | 6.4 | 16.1 | 14.02 | 0.00 | 0.00 | 66 | 42.6 |
| 20260506061044 | 18 | 309 | 8.0 | 14.5 | 14.02 | 0.00 | 0.00 | 66 | 42.6 |
| 20260506060550 | 18 | 306 | 8.0 | 14.5 | 14.02 | 0.00 | 0.00 | 66 | 41.8 |
| 20260506051042 | 20 | 327 | 8.0 | 16.1 | 14.07 | 0.00 | 0.00 | 68 | 39.6 |
| 20260506050524 | 20 | 336 | 6.4 | 12.9 | 14.07 | 0.00 | 0.00 | 68 | 39.4 |
| 20260506045121 | 20 | 339 | 6.4 | 16.1 | 14.07 | 0.00 | 0.00 | 68 | 38.9 |
| 20260506044522 | 20 | 337 | 8.0 | 20.9 | 14.07 | 0.00 | 0.00 | 69 | 38.6 |
| 20260506044047 | 20 | 342 | 9.7 | 22.5 | 14.07 | 0.00 | 0.00 | 69 | 38.6 |
| 20260506043545 | 20 | 340 | 8.0 | 17.7 | 14.10 | 0.00 | 0.00 | 69 | 38.6 |
| 20260506043031 | 20 | 337 | 9.7 | 22.5 | 14.10 | 0.00 | 0.00 | 69 | 38.6 |
| 20260506042642 | 20 | 335 | 9.7 | 20.9 | 14.10 | 0.00 | 0.00 | 69 | 38.5 |
| 20260506042133 | 20 | 340 | 8.0 | 17.7 | 14.10 | 0.00 | 0.00 | 69 | 38.2 |
| 20260506041539 | 20 | 349 | 11.3 | 24.1 | 14.10 | 0.00 | 0.00 | 69 | 38.0 |
| 20260506041108 | 20 | 344 | 11.3 | 29.0 | 14.10 | 0.00 | 0.00 | 69 | 37.8 |
| 20260506040544 | 21 | 354 | 12.9 | 25.7 | 14.10 | 0.00 | 0.00 | 70 | 37.6 |
| 20260506040044 | 21 | 353 | 9.7 | 20.9 | 14.12 | 0.00 | 0.00 | 70 | 37.4 |
| 20260506035558 | 21 | 353 | 16.1 | 32.2 | 14.12 | 0.00 | 0.00 | 70 | 37.1 |
| 20260506035103 | 21 | 358 | 12.9 | 30.6 | 14.12 | 0.00 | 0.00 | 70 | 37.0 |
| 20260506034525 | 21 | 357 | 12.9 | 25.7 | 14.12 | 0.00 | 0.00 | 70 | 36.8 |
| 20260506034024 | 21 | 356 | 14.5 | 29.0 | 14.12 | 0.00 | 0.00 | 70 | 36.4 |
| 20260506033522 | 21 | 356 | 14.5 | 30.6 | 14.12 | 0.00 | 0.00 | 71 | 36.2 |
| 20260506033022 | 21 | 359 | 12.9 | 25.7 | 14.40 | 0.00 | 0.00 | 71 | 36.1 |
| 20260506032628 | 21 | 359 | 12.9 | 32.2 | 15.34 | 0.00 | 0.00 | 71 | 36.0 |
| 20260506032144 | 21 | 356 | 11.3 | 27.4 | 17.07 | 0.00 | 0.00 | 71 | 35.6 |
| 20260506031523 | 21 | 353 | 14.5 | 30.6 | 19.56 | 0.00 | 0.00 | 71 | 35.3 |
| 20260506031105 | 21 | 352 | 11.3 | 25.7 | 24.92 | 0.00 | 0.00 | 71 | 35.1 |
| 20260506030528 | 22 | 356 | 12.9 | 30.6 | 3.53 | 0.00 | 0.00 | 72 | 34.8 |
| 20260506030021 | 22 | 357 | 12.9 | 27.4 | 4.95 | 0.00 | 0.00 | 72 | 34.5 |
| 20260506025600 | 22 | 349 | 12.9 | 27.4 | 6.73 | 0.00 | 0.00 | 72 | 34.1 |
| 20260506025052 | 22 | 354 | 11.3 | 22.5 | 8.89 | 0.00 | 0.00 | 72 | 33.8 |
| 20260506024606 | 22 | 350 | 11.3 | 30.6 | 11.46 | 0.00 | 0.00 | 73 | 33.5 |
| 20260506024024 | 22 | 354 | 14.5 | 29.0 | 14.43 | 0.00 | 0.00 | 73 | 32.9 |
| 20260506023526 | 22 | 351 | 14.5 | 32.2 | 17.83 | 0.00 | 0.00 | 73 | 32.2 |
| 20260506023056 | 23 | 347 | 16.1 | 32.2 | 21.64 | 0.00 | 0.00 | 74 | 31.6 |
| 20260506022658 | 23 | 346 | 14.5 | 30.6 | 2.57 | 0.00 | 0.00 | 74 | 31.0 |
| 20260506022152 | 23 | 348 | 9.7 | 24.1 | 3.02 | 0.00 | 0.00 | 74 | 30.4 |
| 20260506021523 | 23 | 350 | 14.5 | 32.2 | 3.51 | 0.00 | 0.00 | 75 | 29.6 |
| 20260506021105 | 23 | 344 | 8.0 | 19.3 | 4.04 | 0.00 | 0.00 | 75 | 29.3 |
| 20260506020545 | 23 | 347 | 11.3 | 25.7 | 4.55 | 0.00 | 0.00 | 75 | 28.6 |
| 20260506020024 | 24 | 349 | 12.9 | 30.6 | 5.05 | 0.00 | 0.00 | 76 | 28.1 |
| 20260506015613 | 24 | 345 | 11.3 | 24.1 | 5.61 | 0.00 | 0.00 | 76 | 27.6 |
| 20260506015116 | 24 | 342 | 9.7 | 29.0 | 6.15 | 0.00 | 0.00 | 76 | 27.0 |
| 20260506014524 | 25 | 356 | 12.9 | 25.7 | 6.71 | 0.00 | 0.00 | 77 | 26.4 |
| 20260506014024 | 25 | 353 | 9.7 | 25.7 | 7.26 | 0.00 | 0.00 | 77 | 26.2 |
| 20260506013524 | 25 | 354 | 14.5 | 33.8 | 7.85 | 0.00 | 0.00 | 77 | 25.9 |
| 20260506013023 | 25 | 1 | 16.1 | 30.6 | 8.43 | 0.00 | 0.00 | 77 | 25.7 |
| 20260506012634 | 25 | 352 | 12.9 | 30.6 | 8.99 | 0.00 | 0.00 | 77 | 25.4 |
| 20260506012130 | 25 | 350 | 12.9 | 30.6 | 9.60 | 0.00 | 0.00 | 78 | 24.9 |
| 20260506011546 | 25 | 352 | 11.3 | 25.7 | 10.19 | 0.00 | 0.00 | 78 | 24.3 |
| 20260506011104 | 25 | 360 | 12.9 | 22.5 | 10.77 | 0.00 | 0.00 | 78 | 23.6 |
| 20260506010526 | 26 | 338 | 11.3 | 24.1 | 11.35 | 0.00 | 0.00 | 79 | 23.5 |
| 20260506010044 | 26 | 328 | 12.9 | 24.1 | 11.96 | 0.00 | 0.00 | 79 | 23.2 |
| 20260506005551 | 26 | 316 | 11.3 | 17.7 | 12.55 | 0.00 | 0.00 | 79 | 23.6 |
| 20260506005051 | 26 | 320 | 12.9 | 24.1 | 13.13 | 0.00 | 0.00 | 79 | 23.6 |
| 20260506004525 | 26 | 324 | 8.0 | 16.1 | 13.72 | 0.00 | 0.00 | 79 | 23.4 |
| 20260506004023 | 26 | 307 | 6.4 | 9.7 | 14.30 | 0.00 | 0.00 | 79 | 23.5 |
| 20260506003524 | 26 | 269 | 3.2 | 11.3 | 14.88 | 0.00 | 0.00 | 79 | 23.0 |
| 20260506003025 | 26 | 315 | 9.7 | 17.7 | 15.44 | 0.00 | 0.00 | 79 | 23.2 |
| 20260506002629 | 26 | 310 | 11.3 | 20.9 | 16.03 | 0.00 | 0.00 | 79 | 23.2 |
| 20260506002124 | 26 | 307 | 6.4 | 12.9 | 16.59 | 0.00 | 0.00 | 79 | 23.0 |
| 20260506001544 | 26 | 334 | 9.7 | 20.9 | 17.14 | 0.00 | 0.00 | 79 | 23.1 |
| 20260506001042 | 26 | 319 | 11.3 | 22.5 | 17.68 | 0.00 | 0.00 | 79 | 23.2 |
| 20260506000533 | 26 | 324 | 12.9 | 27.4 | 18.24 | 0.00 | 0.00 | 79 | 23.1 |
| 20260506000046 | 26 | 332 | 9.7 | 22.5 | 18.80 | 0.00 | 0.00 | 79 | 22.9 |
| 20260505235641 | 26 | 300 | 12.9 | 25.7 | 19.30 | 0.00 | 0.00 | 79 | 23.3 |
| 20260505235152 | 25 | 325 | 8.0 | 17.7 | 19.84 | 0.00 | 0.00 | 78 | 23.4 |
| 20260505234524 | 25 | 298 | 16.1 | 25.7 | 20.37 | 0.00 | 0.00 | 78 | 23.6 |
| 20260505234048 | 26 | 300 | 14.5 | 25.7 | 20.88 | 0.00 | 0.00 | 79 | 23.6 |
| 20260505233530 | 26 | 312 | 11.3 | 19.3 | 21.41 | 0.00 | 0.00 | 79 | 23.0 |
| 20260505233027 | 26 | 335 | 11.3 | 22.5 | 21.92 | 0.00 | 0.00 | 79 | 23.2 |
| 20260505232634 | 26 | 311 | 14.5 | 27.4 | 22.43 | 0.00 | 0.00 | 79 | 23.2 |
| 20260505232125 | 26 | 286 | 11.3 | 22.5 | 22.91 | 0.00 | 0.00 | 79 | 23.5 |
| 20260505231524 | 26 | 320 | 11.3 | 19.3 | 23.37 | 0.00 | 0.00 | 79 | 22.5 |
| 20260505231044 | 26 | 311 | 6.4 | 17.7 | 23.83 | 0.00 | 0.00 | 79 | 22.6 |
| 20260505230524 | 26 | 298 | 19.3 | 30.6 | 24.26 | 0.00 | 0.00 | 79 | 23.1 |
| 20260505230028 | 26 | 317 | 16.1 | 29.0 | 24.69 | 0.00 | 0.00 | 79 | 22.8 |
| 20260505225647 | 25 | 338 | 11.3 | 17.7 | 25.12 | 0.00 | 0.00 | 78 | 22.8 |
| 20260505225118 | 25 | 288 | 14.5 | 25.7 | 2.54 | 0.00 | 0.00 | 78 | 23.2 |
| 20260505224523 | 26 | 315 | 19.3 | 29.0 | 2.59 | 0.00 | 0.00 | 79 | 23.1 |
| 20260505224023 | 26 | 302 | 17.7 | 33.8 | 2.62 | 0.00 | 0.00 | 79 | 23.2 |
| 20260505223523 | 26 | 310 | 11.3 | 25.7 | 2.67 | 0.00 | 0.00 | 79 | 23.0 |
| 20260505223044 | 26 | 287 | 14.5 | 25.7 | 2.69 | 0.00 | 0.00 | 79 | 23.8 |
| 20260505222645 | 26 | 294 | 9.7 | 29.0 | 2.72 | 0.00 | 0.00 | 79 | 23.4 |
| 20260505222123 | 26 | 322 | 14.5 | 29.0 | 2.74 | 0.00 | 0.00 | 79 | 22.9 |
| 20260505221523 | 26 | 312 | 9.7 | 29.0 | 2.79 | 0.00 | 0.00 | 79 | 23.0 |
| 20260505221043 | 26 | 334 | 11.3 | 22.5 | 2.82 | 0.00 | 0.00 | 79 | 23.3 |
| 20260505220527 | 25 | 319 | 4.8 | 12.9 | 2.87 | 0.00 | 0.00 | 78 | 23.3 |
| 20260505220027 | 25 | 235 | 3.2 | 11.3 | 2.84 | 0.00 | 0.00 | 78 | 23.4 |
| 20260505215615 | 25 | 266 | 11.3 | 19.3 | 2.84 | 0.00 | 0.00 | 78 | 24.0 |
| 20260505215127 | 25 | 322 | 4.8 | 20.9 | 2.87 | 0.00 | 0.00 | 77 | 23.6 |
| 20260505214523 | 25 | 293 | 14.5 | 27.4 | 2.90 | 0.00 | 0.00 | 78 | 24.2 |
| 20260505214025 | 25 | 304 | 12.9 | 25.7 | 2.92 | 0.00 | 0.00 | 78 | 24.1 |
| 20260505213530 | 25 | 245 | 8.0 | 19.3 | 2.97 | 0.00 | 0.00 | 77 | 24.2 |
| 20260505213101 | 25 | 298 | 12.9 | 20.9 | 3.00 | 0.00 | 0.00 | 77 | 24.8 |
| 20260505212652 | 25 | 312 | 4.8 | 17.7 | 3.02 | 0.00 | 0.00 | 77 | 25.0 |
| 20260505212153 | 24 | 256 | 8.0 | 22.5 | 2.97 | 0.00 | 0.00 | 76 | 25.6 |
| 20260505211524 | 25 | 298 | 16.1 | 30.6 | 3.02 | 0.00 | 0.00 | 77 | 25.8 |
| 20260505211106 | 25 | 293 | 14.5 | 27.4 | 3.05 | 0.00 | 0.00 | 77 | 25.9 |
| 20260505210524 | 25 | 306 | 9.7 | 20.9 | 3.07 | 0.00 | 0.00 | 77 | 25.6 |
| 20260505210045 | 25 | 359 | 11.3 | 20.9 | 3.15 | 0.00 | 0.00 | 78 | 25.6 |
| 20260505205623 | 25 | 328 | 16.1 | 29.0 | 3.20 | 0.00 | 0.00 | 77 | 26.2 |
| 20260505205101 | 25 | 316 | 14.5 | 27.4 | 3.20 | 0.00 | 0.00 | 77 | 26.4 |
| 20260505204545 | 25 | 282 | 14.5 | 25.7 | 3.20 | 0.00 | 0.00 | 77 | 26.5 |
| 20260505204045 | 25 | 298 | 14.5 | 22.5 | 3.23 | 0.00 | 0.00 | 77 | 26.6 |
| 20260505203524 | 25 | 312 | 14.5 | 25.7 | 3.15 | 0.00 | 0.00 | 77 | 27.0 |
| 20260505203039 | 24 | 29 | 14.5 | 24.1 | 2.97 | 0.00 | 0.00 | 76 | 27.1 |
| 20260505202651 | 24 | 10 | 11.3 | 22.5 | 2.79 | 0.00 | 0.00 | 76 | 27.8 |
| 20260505202146 | 24 | 295 | 8.0 | 20.9 | 2.67 | 0.00 | 0.00 | 76 | 27.3 |
| 20260505201547 | 24 | 294 | 11.3 | 24.1 | 2.64 | 0.00 | 0.00 | 76 | 27.4 |
| 20260505201049 | 24 | 290 | 14.5 | 27.4 | 2.64 | 0.00 | 0.00 | 76 | 27.9 |
| 20260505200545 | 25 | 314 | 11.3 | 25.7 | 2.64 | 0.00 | 0.00 | 77 | 27.8 |
| 20260505200056 | 23 | 334 | 6.4 | 14.5 | 2.64 | 0.00 | 0.00 | 75 | 28.4 |
| 20260505195740 | 23 | 240 | 3.2 | 6.4 | 2.64 | 0.00 | 0.00 | 75 | 30.4 |
| 20260505195147 | 23 | 306 | 6.4 | 11.3 | 2.64 | 0.00 | 0.00 | 75 | 31.7 |
| 20260505194523 | 23 | 284 | 11.3 | 19.3 | 2.64 | 0.00 | 0.00 | 74 | 32.6 |
| 20260505194024 | 23 | 350 | 11.3 | 25.7 | 2.62 | 0.00 | 0.00 | 74 | 34.2 |
| 20260505193545 | 23 | 119 | 8.0 | 11.3 | 2.64 | 0.00 | 0.00 | 74 | 33.6 |
| 20260505193023 | 23 | 158 | 3.2 | 9.7 | 2.67 | 0.00 | 0.00 | 74 | 33.5 |
| 20260505192622 | 23 | 183 | 6.4 | 16.1 | 2.74 | 0.00 | 0.00 | 74 | 33.0 |
| 20260505192119 | 23 | 192 | 8.0 | 19.3 | 2.87 | 0.00 | 0.00 | 74 | 32.9 |
| 20260505191523 | 23 | 174 | 12.9 | 25.7 | 2.84 | 0.00 | 0.00 | 75 | 32.6 |
| 20260505191045 | 23 | 204 | 9.7 | 19.3 | 2.79 | 0.00 | 0.00 | 74 | 33.2 |
| 20260505190545 | 23 | 179 | 6.4 | 17.7 | 2.72 | 0.00 | 0.00 | 74 | 33.5 |
| 20260505190024 | 23 | 306 | 4.8 | 11.3 | 2.59 | 0.00 | 0.00 | 74 | 33.7 |
| 20260505185606 | 23 | 212 | 4.8 | 11.3 | 24.49 | 0.00 | 0.00 | 74 | 34.1 |
| 20260505185126 | 23 | 193 | 4.8 | 12.9 | 22.86 | 0.00 | 0.00 | 74 | 34.5 |
| 20260505184545 | 22 | 174 | 3.2 | 6.4 | 21.72 | 0.00 | 0.00 | 73 | 35.0 |
| 20260505184022 | 22 | 195 | 3.2 | 8.0 | 20.93 | 0.00 | 0.00 | 72 | 35.6 |
| 20260505183526 | 22 | 226 | 3.2 | 12.9 | 20.27 | 0.00 | 0.00 | 72 | 35.8 |
| 20260505183025 | 22 | 239 | 8.0 | 12.9 | 21.26 | 0.00 | 0.00 | 72 | 36.8 |
| 20260505182654 | 22 | 239 | 9.7 | 16.1 | 21.84 | 0.00 | 0.00 | 72 | 36.3 |
| 20260505182113 | 22 | 327 | 1.6 | 6.4 | 21.39 | 0.00 | 0.00 | 72 | 35.7 |
| 20260505181524 | 22 | 252 | 3.2 | 9.7 | 20.09 | 0.00 | 0.00 | 72 | 36.0 |
| 20260505181105 | 21 | 276 | 3.2 | 9.7 | 19.08 | 0.00 | 0.00 | 71 | 36.7 |
| 20260505180549 | 22 | 248 | 4.8 | 12.9 | 17.96 | 0.00 | 0.00 | 72 | 37.0 |
| 20260505180048 | 21 | 188 | 3.2 | 6.4 | 17.58 | 0.00 | 0.00 | 71 | 37.6 |
| 20260505175621 | 21 | 135 | 4.8 | 9.7 | 17.40 | 0.00 | 0.00 | 71 | 37.6 |
| 20260505175150 | 21 | 147 | 6.4 | 11.3 | 17.42 | 0.00 | 0.00 | 71 | 37.8 |
| 20260505174525 | 21 | 72 | 3.2 | 6.4 | 16.84 | 0.00 | 0.00 | 71 | 37.9 |
| 20260505174025 | 21 | 184 | 1.6 | 4.8 | 15.98 | 0.00 | 0.00 | 71 | 37.8 |
| 20260505173546 | 21 | 231 | 3.2 | 8.0 | 15.95 | 0.00 | 0.00 | 70 | 37.8 |
| 20260505173045 | 21 | 276 | 4.8 | 11.3 | 15.44 | 0.00 | 0.00 | 70 | 38.4 |
| 20260505172634 | 21 | 279 | 3.2 | 6.4 | 14.68 | 0.00 | 0.00 | 70 | 38.6 |
| 20260505172128 | 21 | 329 | 4.8 | 11.3 | 14.73 | 0.00 | 0.00 | 70 | 38.6 |
| 20260505171522 | 21 | 3 | 3.2 | 6.4 | 14.81 | 0.00 | 0.00 | 70 | 38.8 |
| 20260505171052 | 21 | 13 | 3.2 | 9.7 | 14.81 | 0.00 | 0.00 | 70 | 38.9 |
| 20260505170704 | 20 | 320 | 4.8 | 9.7 | 14.99 | 0.00 | 0.00 | 69 | 39.3 |
| 20260505170120 | 20 | 273 | 3.2 | 8.0 | 15.19 | 0.00 | 0.00 | 69 | 39.7 |
| 20260505165640 | 20 | 256 | 3.2 | 6.4 | 15.42 | 0.00 | 0.00 | 69 | 39.5 |
| 20260505165128 | 20 | 290 | 4.8 | 8.0 | 15.72 | 0.00 | 0.00 | 69 | 39.9 |
| 20260505164524 | 20 | 256 | 6.4 | 8.0 | 16.08 | 0.00 | 0.00 | 69 | 39.8 |
| 20260505164023 | 20 | 159 | 4.8 | 8.0 | 16.51 | 0.00 | 0.00 | 69 | 40.9 |
| 20260505163547 | 20 | 130 | 3.2 | 8.0 | 15.77 | 0.00 | 0.00 | 69 | 41.1 |
| 20260505163031 | 20 | 234 | 3.2 | 8.0 | 14.99 | 0.00 | 0.00 | 69 | 41.6 |
| 20260505162701 | 20 | 272 | 3.2 | 6.4 | 14.15 | 0.00 | 0.00 | 68 | 41.7 |
| 20260505162252 | 20 | 312 | 4.8 | 9.7 | 13.28 | 0.00 | 0.00 | 68 | 42.8 |
| 20260505161524 | 20 | 250 | 4.8 | 9.7 | 12.47 | 0.00 | 0.00 | 68 | 43.1 |
| 20260505161047 | 19 | 274 | 8.0 | 12.9 | 11.66 | 0.00 | 0.00 | 67 | 44.0 |
| 20260505160650 | 19 | 265 | 6.4 | 12.9 | 11.25 | 0.00 | 0.00 | 67 | 44.7 |
| 20260505160125 | 19 | 276 | 6.4 | 12.9 | 10.72 | 0.00 | 0.00 | 67 | 45.4 |
| 20260505153232 | 18 | 279 | 8.0 | 11.3 | 9.19 | 0.00 | 0.00 | 66 | 47.3 |
| 20260505152853 | 18 | 290 | 6.4 | 9.7 | 9.27 | 0.00 | 0.00 | 66 | 47.1 |
| 20260505152443 | 18 | 303 | 6.4 | 9.7 | 9.42 | 0.00 | 0.00 | 66 | 46.8 |
| 20260505151525 | 18 | 310 | 4.8 | 11.3 | 9.58 | 0.00 | 0.00 | 66 | 46.2 |
| 20260505151049 | 18 | 317 | 6.4 | 12.9 | 9.65 | 0.00 | 0.00 | 66 | 46.7 |
| 20260505150659 | 18 | 340 | 6.4 | 14.5 | 9.55 | 0.00 | 0.00 | 66 | 47.3 |
| 20260505150118 | 18 | 318 | 11.3 | 17.7 | 9.45 | 0.00 | 0.00 | 66 | 48.0 |
| 20260505140615 | 17 | 298 | 4.8 | 8.0 | 3.15 | 0.00 | 0.00 | 63 | 52.5 |
| 20260505140110 | 16 | 305 | 3.2 | 4.8 | 2.69 | 0.00 | 0.00 | 62 | 53.2 |
| 20260505124526 | 15 | 259 | 4.8 | 6.4 | 14.02 | 0.00 | 0.00 | 59 | 56.3 |
| 20260505124025 | 15 | 285 | 4.8 | 6.4 | 13.82 | 0.00 | 0.00 | 59 | 56.7 |
| 20260505123549 | 15 | 300 | 4.8 | 8.0 | 13.82 | 0.00 | 0.00 | 60 | 55.0 |
| 20260505123123 | 16 | 305 | 4.8 | 8.0 | 13.82 | 0.00 | 0.00 | 61 | 53.4 |
| 20260505122704 | 16 | 303 | 6.4 | 9.7 | 13.82 | 0.00 | 0.00 | 61 | 52.8 |
| 20260505122204 | 16 | 287 | 6.4 | 9.7 | 13.82 | 0.00 | 0.00 | 61 | 53.5 |
| 20260505121645 | 16 | 280 | 8.0 | 12.9 | 13.82 | 0.00 | 0.00 | 61 | 52.6 |
| 20260505121328 | 16 | 293 | 9.7 | 14.5 | 13.82 | 0.00 | 0.00 | 62 | 51.9 |
| 20260505120901 | 16 | 282 | 9.7 | 14.5 | 13.82 | 0.00 | 0.00 | 61 | 54.1 |
| 20260505120257 | 15 | 266 | 9.7 | 14.5 | 13.82 | 0.00 | 0.00 | 60 | 55.5 |
| 20260505115828 | 15 | 256 | 9.7 | 12.9 | 13.82 | 0.00 | 0.00 | 60 | 56.2 |
| 20260505115309 | 15 | 256 | 9.7 | 12.9 | 13.82 | 0.00 | 0.00 | 60 | 56.7 |
| 20260505114544 | 15 | 259 | 8.0 | 11.3 | 13.82 | 0.00 | 0.00 | 60 | 56.2 |
| 20260505114106 | 15 | 242 | 9.7 | 12.9 | 13.82 | 0.00 | 0.00 | 60 | 55.9 |
| 20260505113605 | 15 | 265 | 6.4 | 12.9 | 13.82 | 0.00 | 0.00 | 59 | 56.7 |
| 20260505113046 | 15 | 300 | 4.8 | 8.0 | 13.82 | 0.00 | 0.00 | 60 | 56.4 |
| 20260505112632 | 15 | 307 | 4.8 | 8.0 | 13.82 | 0.00 | 0.00 | 60 | 55.8 |
| 20260505112107 | 15 | 310 | 3.2 | 8.0 | 13.82 | 0.00 | 0.00 | 60 | 55.9 |
| 20260505111525 | 15 | 296 | 6.4 | 9.7 | 13.82 | 0.00 | 0.00 | 60 | 55.5 |
| 20260505111134 | 15 | 305 | 8.0 | 11.3 | 13.82 | 0.00 | 0.00 | 60 | 55.4 |
| 20260505110724 | 15 | 294 | 9.7 | 12.9 | 13.82 | 0.00 | 0.00 | 60 | 55.2 |
| 20260505110204 | 15 | 290 | 8.0 | 12.9 | 13.82 | 0.00 | 0.00 | 60 | 56.4 |
| 20260505102208 | 15 | 258 | 8.0 | 9.7 | 13.84 | 0.00 | 0.00 | 60 | 55.6 |
| 20260505101556 | 15 | 267 | 6.4 | 9.7 | 13.84 | 0.00 | 0.00 | 60 | 55.8 |
| 20260505101151 | 15 | 286 | 4.8 | 8.0 | 13.84 | 0.00 | 0.00 | 60 | 54.9 |
| 20260505100634 | 15 | 300 | 3.2 | 6.4 | 13.87 | 0.00 | 0.00 | 60 | 54.3 |
| 20260505100123 | 16 | 305 | 4.8 | 8.0 | 13.87 | 0.00 | 0.00 | 61 | 53.9 |
| 20260505095627 | 16 | 316 | 6.4 | 8.0 | 13.87 | 0.00 | 0.00 | 61 | 52.7 |
| 20260505095132 | 16 | 313 | 6.4 | 12.9 | 13.87 | 0.00 | 0.00 | 62 | 51.9 |
| 20260505094527 | 16 | 311 | 6.4 | 11.3 | 13.87 | 0.00 | 0.00 | 62 | 51.8 |
| 20260505094045 | 16 | 302 | 6.4 | 9.7 | 13.87 | 0.00 | 0.00 | 62 | 51.4 |
| 20260505093526 | 16 | 302 | 8.0 | 12.9 | 13.87 | 0.00 | 0.00 | 62 | 50.7 |
| 20260505093046 | 16 | 309 | 8.0 | 16.1 | 13.87 | 0.00 | 0.00 | 62 | 51.5 |
| 20260505092606 | 16 | 297 | 6.4 | 12.9 | 13.87 | 0.00 | 0.00 | 62 | 50.5 |
| 20260505092048 | 16 | 308 | 6.4 | 11.3 | 13.87 | 0.00 | 0.00 | 62 | 50.7 |
| 20260505091523 | 16 | 300 | 4.8 | 9.7 | 13.87 | 0.00 | 0.00 | 62 | 50.6 |
| 20260505091140 | 16 | 286 | 6.4 | 11.3 | 13.87 | 0.00 | 0.00 | 62 | 51.1 |
| 20260505090717 | 16 | 258 | 8.0 | 11.3 | 13.87 | 0.00 | 0.00 | 61 | 52.2 |
| 20260505090105 | 16 | 261 | 6.4 | 11.3 | 13.87 | 0.00 | 0.00 | 62 | 50.6 |
| 20260505085656 | 16 | 285 | 8.0 | 11.3 | 13.87 | 0.00 | 0.00 | 62 | 51.0 |
| 20260505085158 | 16 | 277 | 6.4 | 9.7 | 13.89 | 0.00 | 0.00 | 62 | 51.5 |
| 20260505084547 | 16 | 288 | 3.2 | 6.4 | 13.89 | 0.00 | 0.00 | 61 | 52.1 |
| 20260505084107 | 16 | 283 | 3.2 | 4.8 | 13.89 | 0.00 | 0.00 | 62 | 51.2 |
| 20260505083526 | 16 | 257 | 4.8 | 8.0 | 13.89 | 0.00 | 0.00 | 62 | 49.9 |
| 20260505083026 | 16 | 264 | 6.4 | 9.7 | 13.89 | 0.00 | 0.00 | 62 | 49.7 |
| 20260505082608 | 17 | 305 | 6.4 | 8.0 | 13.89 | 0.00 | 0.00 | 63 | 48.0 |
| 20260505082102 | 17 | 322 | 6.4 | 8.0 | 13.89 | 0.00 | 0.00 | 63 | 47.4 |
| 20260505081531 | 17 | 308 | 6.4 | 9.7 | 13.92 | 0.00 | 0.00 | 64 | 47.2 |
| 20260505081131 | 17 | 303 | 4.8 | 8.0 | 13.92 | 0.00 | 0.00 | 64 | 46.4 |
| 20260505080530 | 17 | 282 | 6.4 | 11.3 | 13.92 | 0.00 | 0.00 | 64 | 45.9 |
| 20260505080053 | 17 | 268 | 6.4 | 11.3 | 13.92 | 0.00 | 0.00 | 64 | 46.4 |
| 20260505075653 | 17 | 248 | 8.0 | 12.9 | 13.92 | 0.00 | 0.00 | 64 | 46.2 |
| 20260505075109 | 17 | 250 | 8.0 | 11.3 | 13.92 | 0.00 | 0.00 | 64 | 46.1 |
| 20260505074524 | 17 | 242 | 8.0 | 11.3 | 13.92 | 0.00 | 0.00 | 63 | 46.7 |
| 20260505074025 | 17 | 260 | 4.8 | 8.0 | 13.94 | 0.00 | 0.00 | 63 | 47.2 |
| 20260505073552 | 17 | 296 | 3.2 | 6.4 | 13.94 | 0.00 | 0.00 | 64 | 46.2 |